[[{"header":{"parameterUnit":"m.s-1","parameterCategory":1,"la1":30.2991,"la2":30.254,"lo1":-89.0895,"lo2":-89.0444,"dx":0.0017,"dy":0.0017,"nx":28,"ny":28,"refTime":"2022-11-29T09:00:00:Z","depth":0,"parameterNumber":2,"parameterNumberName":"U-component_of_WINDS"},"data":[0,0,0,0,0,0,0,0,0,0,0,0,0,0,0,0,0,0,0,0,0,0,0,0,0,0,0,0,0,0,0,0,0,0,0,0,0,0,0,0,0,0,0,0,0,0,0,0,0,0,0,0,0,0,0,0,0,0,-3.5762,-3.5763,0,-3.5883,-3.5884,-3.5885,-3.5813,-3.5809,-3.5806,-3.5802,-3.5929,-3.5936,-3.5942,0,0,0,0,0,0,0,0,0,0,0,0,0,-3.5471,-3.5476,-3.5762,-3.5764,-3.5765,-3.5882,-3.5884,-3.5886,-3.5813,-3.5809,-3.5805,-3.5801,-3.5927,-3.5935,-3.5943,0,0,0,0,0,0,0,0,0,0,0,0,0,-3.5595,-3.5478,-3.5762,-3.5743,-3.5742,-3.5882,-3.5884,-3.5886,-3.5814,-3.5809,-3.5804,-3.5799,-3.5924,-3.5934,-3.5944,-3.611,0,0,-3.5974,-3.5979,0,0,0,0,0,0,0,0,-3.5588,-3.5606,-3.5744,-3.5744,-3.5744,-3.5827,-3.5828,-3.5961,-3.5815,-3.5787,-3.5802,-3.5796,-3.59,-3.5911,-3.5945,-3.6116,-3.6121,-3.5975,-3.5981,-3.5985,-3.5988,0,0,0,0,0,0,0,-3.558,-3.56,-3.581,-3.5746,-3.5746,-3.5729,-3.5741,-3.5853,-3.5871,-3.5789,-3.5784,-3.5799,-3.5899,-3.5936,-3.5948,-3.6123,-3.5975,-3.5984,-3.599,-3.5994,-3.6436,-3.6442,0,0,0,0,0,0,-3.5572,-3.5594,-3.5806,-3.5813,-3.5651,-3.5738,-3.5752,-3.5806,-3.587,-3.5874,-3.5803,-3.5795,-3.5922,-3.5936,-3.5952,-3.6152,-3.5985,-3.5995,-3.6,-3.643,-3.6437,-3.6444,0,0,0,0,0,0,-3.5566,-3.5592,-3.5801,-3.5702,-3.5727,-3.5749,-3.581,-3.5811,-3.5848,-3.5881,-3.5884,-3.5838,-3.5918,-3.5938,-3.6071,-3.6155,-3.5999,-3.6008,-3.6423,-3.6432,-3.644,-3.6552,0,0,0,0,0,0,-3.5558,-3.559,-3.5653,-3.5704,-3.5733,-3.5918,-3.5815,-3.5817,-3.5865,-3.5856,-3.5914,-3.5919,-3.5916,-3.6057,-3.6081,-3.6166,-3.6016,-3.6416,-3.6427,-3.6438,-3.6541,-3.6563,-3.6582,0,0,0,0,0,-3.5548,-3.568,-3.5657,-3.5683,-3.5812,-3.5923,-3.594,-3.5932,-3.5872,-3.5936,-3.5957,-3.5917,-3.6141,-3.6071,-3.6098,-3.6187,-3.6411,-3.6424,-3.6437,-3.6531,-3.6559,-3.6582,0,0,0,0,0,0,-3.564,-3.5687,-3.5661,-3.5814,-3.5865,-3.591,-3.5991,-3.5961,-3.6031,-3.602,-3.6008,-3.6022,-3.6161,-3.6186,-3.6107,-3.6351,-3.6267,-3.6286,-3.633,-3.6356,-3.6376,-3.6368,-3.6024,0,0,0,0,0,-3.5678,-3.5763,-3.5799,-3.5931,-3.5957,-3.597,-3.6018,-3.6007,-3.606,-3.6082,-3.6112,-3.6166,-3.6248,-3.6303,-3.638,-3.6543,-3.6555,-3.6617,-3.6638,-3.6655,-3.6673,-3.6761,-3.6789,-3.6486,-3.6486,-3.6486,0,0,-3.5758,-3.5794,-3.5849,-3.595,-3.5988,-3.6078,-3.5989,-3.6087,-3.6154,-3.6097,-3.6225,-3.6248,-3.6307,-3.6456,-3.6523,-3.6482,-3.6758,-3.6672,-3.6685,-3.6693,-3.6777,-3.6806,-3.6832,-3.6495,-3.6493,-3.6492,0,0,-3.5949,-3.5984,-3.6098,-3.6138,-3.6196,-3.6203,-3.623,-3.628,-3.6294,-3.6421,-3.638,-3.6459,-3.6601,-3.6645,-3.6686,-3.6891,-3.6858,-3.6917,-3.7027,-3.7113,-3.7137,-3.7158,-3.7233,-3.726,-3.6934,-3.6934,-3.6934,0,-3.6042,-3.6174,-3.616,-3.6262,-3.6308,-3.6259,-3.6374,-3.6413,-3.6495,-3.6528,-3.648,-3.6657,-3.6693,-3.6852,-3.6902,-3.6936,-3.6967,-3.6912,-3.7134,-3.7156,-3.7175,-3.7247,-3.7275,-3.6941,-3.694,-3.6939,-3.6939,0,-3.6285,-3.6377,-3.6462,-3.6541,-3.6596,-3.6704,-3.6707,-3.6765,-3.6749,-3.6761,-3.6891,-3.6932,-3.7018,-3.7054,-3.704,-3.7211,-3.7183,-3.7135,-3.7051,-3.7211,-3.7278,-3.7305,-3.6951,-3.6948,-3.6946,-3.6944,0,0,-3.6542,-3.6609,-3.6641,-3.6676,-3.6736,-3.6807,-3.6912,-3.6994,-3.7045,-3.7102,-3.7191,-3.7311,-3.7266,-3.7313,-3.7303,-3.7378,-3.754,-3.7321,-3.7322,-3.7362,-3.7732,-3.777,-3.7802,-3.7517,-3.7522,-3.7526,-3.7728,0,-3.6738,-3.6922,-3.6912,-3.7084,-3.717,-3.7123,-3.7214,-3.7262,-3.7275,-3.735,-3.7365,-3.7451,-3.7385,-3.7413,-3.7485,-3.7505,-3.7615,-3.749,-3.7601,-3.7605,-3.759,-3.7836,-3.7877,-3.8065,-3.7754,-3.7758,-3.7761,0,-3.6993,-3.7057,-3.7238,-3.7285,-3.732,-3.7403,-3.7477,-3.7548,-3.76,-3.7605,-3.7656,-3.7633,-3.774,-3.7651,-3.7799,-3.7714,-3.7758,-3.7775,-3.7782,-3.7794,-3.7695,-3.7857,-3.8125,-3.8154,-3.7802,-3.7799,-3.7796,0,-3.7164,-3.7296,-3.7421,-3.7452,-3.7509,-3.7568,-3.7595,-3.7641,-3.7691,-3.7756,-3.7788,-3.7864,-3.7907,-3.7967,-3.7965,-3.79,-3.8116,-3.8026,-3.8124,-3.8125,-3.8174,-3.8172,-3.8455,-3.8199,-3.8199,-3.8198,-3.8197,0,-3.7386,-3.7499,-3.7499,-3.7576,-3.7701,-3.7688,-3.7812,-3.7832,-3.7874,-3.7955,-3.7919,-3.7996,-3.7988,-3.8065,-3.8065,-3.8188,-3.8207,-3.8215,-3.8214,-3.822,-3.8219,-3.8251,-3.8238,-3.8205,-3.8204,-3.8202,-3.8201,0,-3.76,-3.7604,-3.7738,-3.7779,-3.7792,-3.7883,-3.7919,-3.7993,-3.8002,-3.8105,-3.8128,-3.8144,-3.8233,-3.8236,-3.834,-3.8339,-3.849,-3.8473,-3.8472,-3.847,-3.8568,-3.856,-3.8884,-3.8927,-3.8641,-3.8644,-3.8646,0,-3.7743,-3.7828,-3.7879,-3.793,-3.796,-3.8043,-3.8092,-3.8082,-3.8136,-3.8201,-3.8267,-3.8352,-3.842,-3.8565,-3.8586,-3.8665,-3.8651,-3.8759,-3.8663,-3.8666,-3.8655,-3.8651,-3.866,-3.8779,-3.8782,-3.8785,-3.8787,0,-3.7997,-3.7994,-3.8067,-3.8141,-3.8201,-3.8259,-3.8312,-3.8356,-3.8352,-3.8414,-3.8504,-3.8557,-3.8661,-3.8747,-3.8823,-3.8851,-3.882,-3.8816,-3.8843,-3.8852,-3.8849,-3.8853,-3.8526,-3.881,-3.8807,-3.8806,-3.8805,-3.8804,-3.8181,-3.8255,-3.8302,-3.8384,-3.8423,-3.8473,-3.8544,-3.8561,-3.8636,-3.872,-3.8709,-3.881,-3.8858,-3.8957,-3.8991,-3.907,-3.9033,-3.9072,-3.9082,-3.9093,-3.9104,-3.8834,-3.9083,-3.9083,-3.9082,-3.9082,-3.9081,0,-3.8434,-3.8461,-3.8537,-3.8612,-3.8677,-3.8639,-3.8696,-3.8753,-3.8842,-3.8889,-3.8957,-3.906,-3.9143,-3.9169,-3.9249,-3.9308,-3.9295,-3.9329,-3.9326,-3.9333,-3.9132,-3.9101,-3.9338,-3.9338,-3.9338,-3.9338,-3.9338,-3.9338,-3.8574,-3.8697,-3.87,-3.8842,-3.8868,-3.8966,-3.9002,-3.9048,-3.9086,-3.9203,-3.9271,-3.9287,-3.9326,-3.9409,-3.9483,-3.9488,-3.952,-3.9561,-3.9561,-3.9373,-3.9347,-3.9323,-3.9294,-3.9568,-3.9568,-3.9756,-3.9758,-3.976]},{"header":{"parameterUnit":"m.s-1","parameterCategory":1,"la1":30.2991,"la2":30.254,"lo1":-89.0895,"lo2":-89.0444,"dx":0.0017,"dy":0.0017,"nx":28,"ny":28,"refTime":"2022-11-29T09:00:00:Z","depth":0,"parameterNumber":3,"parameterNumberName":"V-component_of_WINDS"},"data":[0,0,0,0,0,0,0,0,0,0,0,0,0,0,0,0,0,0,0,0,0,0,0,0,0,0,0,0,0,0,0,0,0,0,0,0,0,0,0,0,0,0,0,0,0,0,0,0,0,0,0,0,0,0,0,0,0,0,-6.1892,-6.1893,0,-6.197,-6.1971,-6.1972,-6.1901,-6.1898,-6.1895,-6.1893,-6.1968,-6.1972,-6.1977,0,0,0,0,0,0,0,0,0,0,0,0,0,-6.1675,-6.1679,-6.1892,-6.1893,-6.1894,-6.197,-6.1971,-6.1972,-6.1902,-6.1898,-6.1895,-6.1891,-6.1966,-6.1972,-6.1977,0,0,0,0,0,0,0,0,0,0,0,0,0,-6.1763,-6.1681,-6.1892,-6.1868,-6.1867,-6.197,-6.1971,-6.1973,-6.1902,-6.1898,-6.1894,-6.189,-6.1964,-6.1971,-6.1978,-6.2107,0,0,-6.1999,-6.2002,0,0,0,0,0,0,0,0,-6.1758,-6.1771,-6.1871,-6.187,-6.1869,-6.1922,-6.1922,-6.2018,-6.1903,-6.1889,-6.1892,-6.1888,-6.1955,-6.1963,-6.1987,-6.2111,-6.2114,-6.2,-6.2004,-6.2007,-6.2009,0,0,0,0,0,0,0,-6.1752,-6.1767,-6.1923,-6.1872,-6.1871,-6.1851,-6.1859,-6.194,-6.1945,-6.189,-6.1885,-6.1895,-6.1954,-6.198,-6.1988,-6.2115,-6.2,-6.2006,-6.201,-6.2013,-6.2346,-6.2351,0,0,0,0,0,0,-6.1749,-6.1762,-6.192,-6.1925,-6.1802,-6.1859,-6.1867,-6.1909,-6.1944,-6.1945,-6.1899,-6.1892,-6.197,-6.198,-6.199,-6.2143,-6.2007,-6.2014,-6.2018,-6.2342,-6.2347,-6.2352,0,0,0,0,0,0,-6.1745,-6.1764,-6.1917,-6.1843,-6.1861,-6.1867,-6.1914,-6.1913,-6.1939,-6.1951,-6.1951,-6.1925,-6.1967,-6.1981,-6.2079,-6.2144,-6.2017,-6.2023,-6.2336,-6.2343,-6.235,-6.2449,0,0,0,0,0,0,-6.1739,-6.1763,-6.1814,-6.1844,-6.1865,-6.2006,-6.1918,-6.1917,-6.1952,-6.1943,-6.1976,-6.1977,-6.1965,-6.2069,-6.2086,-6.2152,-6.2029,-6.233,-6.2339,-6.2348,-6.244,-6.2459,-6.2475,0,0,0,0,0,-6.1731,-6.1838,-6.1817,-6.1836,-6.1929,-6.201,-6.2022,-6.2008,-6.1957,-6.2007,-6.2015,-6.1976,-6.2135,-6.2079,-6.2098,-6.2167,-6.2326,-6.2337,-6.2347,-6.2432,-6.2455,-6.2474,0,0,0,0,0,0,-6.1813,-6.1842,-6.1818,-6.1938,-6.1973,-6.1998,-6.2061,-6.2032,-6.208,-6.207,-6.2048,-6.2056,-6.216,-6.2173,-6.2111,-6.2293,-6.2222,-6.2236,-6.228,-6.2302,-6.2319,-6.2313,-6.2035,0,0,0,0,0,-6.1846,-6.1912,-6.1932,-6.2036,-6.2054,-6.2055,-6.209,-6.2076,-6.211,-6.2123,-6.2138,-6.2171,-6.2227,-6.2265,-6.2319,-6.2442,-6.2446,-6.2498,-6.2515,-6.2529,-6.2542,-6.2606,-6.2629,-6.2387,-6.2387,-6.2386,0,0,-6.1913,-6.1936,-6.1979,-6.2053,-6.2078,-6.2144,-6.2067,-6.2141,-6.2189,-6.2134,-6.2227,-6.2239,-6.2274,-6.2385,-6.2434,-6.2399,-6.261,-6.2543,-6.2554,-6.2559,-6.2619,-6.2642,-6.2662,-6.2394,-6.2392,-6.2391,0,0,-6.2069,-6.2094,-6.2183,-6.2209,-6.2248,-6.2248,-6.2269,-6.2299,-6.2305,-6.2399,-6.2358,-6.2414,-6.2513,-6.2539,-6.2565,-6.2729,-6.2695,-6.2747,-6.2837,-6.29,-6.2919,-6.2935,-6.2992,-6.3013,-6.276,-6.276,-6.276,0,-6.2147,-6.2247,-6.2231,-6.2308,-6.2341,-6.2295,-6.2383,-6.2408,-6.2462,-6.2485,-6.2445,-6.2567,-6.2588,-6.2703,-6.2743,-6.2766,-6.2788,-6.2743,-6.2918,-6.2934,-6.295,-6.3004,-6.3025,-6.2766,-6.2765,-6.2765,-6.2764,0,-6.234,-6.241,-6.2477,-6.2531,-6.2571,-6.2653,-6.2648,-6.2689,-6.2671,-6.2674,-6.2769,-6.2792,-6.2848,-6.2874,-6.2857,-6.2986,-6.2963,-6.2921,-6.2849,-6.2979,-6.3029,-6.305,-6.2775,-6.2773,-6.2771,-6.2769,0,0,-6.2551,-6.2595,-6.262,-6.2643,-6.2682,-6.2735,-6.2813,-6.2869,-6.2905,-6.2943,-6.3007,-6.3091,-6.3052,-6.3082,-6.3067,-6.3122,-6.3248,-6.3073,-6.3073,-6.3103,-6.339,-6.3421,-6.3445,-6.3226,-6.3229,-6.3233,-6.3386,0,-6.2707,-6.2847,-6.2834,-6.2964,-6.3027,-6.2984,-6.3051,-6.3081,-6.3086,-6.3138,-6.3142,-6.3202,-6.3146,-6.3164,-6.3216,-6.3222,-6.3305,-6.3211,-6.3283,-6.3286,-6.3275,-6.3472,-6.3505,-6.3649,-6.3406,-6.3409,-6.3412,0,-6.2909,-6.2955,-6.3093,-6.3121,-6.3147,-6.3209,-6.3258,-6.3309,-6.3341,-6.334,-6.3373,-6.3348,-6.3425,-6.3352,-6.3455,-6.3391,-6.342,-6.3427,-6.3432,-6.3437,-6.3356,-6.3481,-6.3695,-6.3716,-6.3443,-6.344,-6.3438,0,-6.3047,-6.3144,-6.3238,-6.326,-6.3295,-6.3339,-6.3355,-6.3383,-6.3417,-6.3459,-6.3481,-6.3531,-6.3559,-6.3597,-6.3585,-6.3534,-6.3691,-6.3618,-6.3691,-6.3691,-6.3725,-6.3723,-6.3946,-6.3746,-6.3745,-6.3745,-6.3744,0,-6.3223,-6.3308,-6.3301,-6.3359,-6.3452,-6.3435,-6.3528,-6.3538,-6.3563,-6.362,-6.3585,-6.3639,-6.3621,-6.3673,-6.3664,-6.375,-6.3763,-6.3763,-6.3759,-6.3766,-6.3766,-6.3784,-6.3773,-6.3751,-6.3749,-6.3748,-6.3747,0,-6.3393,-6.3392,-6.3491,-6.3517,-6.3525,-6.3592,-6.3612,-6.3666,-6.3667,-6.374,-6.3756,-6.3757,-6.3817,-6.3809,-6.3876,-6.3869,-6.3976,-6.3961,-6.3966,-6.3962,-6.4035,-6.4028,-6.4276,-6.4307,-6.4088,-6.409,-6.4092,0,-6.3505,-6.357,-6.3602,-6.3639,-6.3658,-6.3718,-6.3753,-6.3738,-6.3775,-6.3815,-6.3863,-6.392,-6.3964,-6.4061,-6.4067,-6.4117,-6.4102,-6.4185,-6.4109,-6.4113,-6.4101,-6.4097,-6.4103,-6.42,-6.4202,-6.4204,-6.4206,0,-6.3703,-6.3699,-6.3752,-6.3804,-6.3846,-6.3886,-6.3922,-6.3953,-6.3941,-6.3984,-6.4046,-6.408,-6.4148,-6.4204,-6.4251,-6.4265,-6.4233,-6.423,-6.4249,-6.4256,-6.4256,-6.4256,-6.4006,-6.4224,-6.4223,-6.4221,-6.422,-6.422,-6.3847,-6.3902,-6.3933,-6.3992,-6.4017,-6.4051,-6.4102,-6.411,-6.4161,-6.4216,-6.4204,-6.4273,-6.43,-6.436,-6.4379,-6.4431,-6.44,-6.4428,-6.4435,-6.4442,-6.445,-6.4249,-6.4439,-6.4439,-6.4438,-6.4438,-6.4437,0,-6.4042,-6.406,-6.4114,-6.4166,-6.4212,-6.4179,-6.4217,-6.4256,-6.4318,-6.4347,-6.4392,-6.4461,-6.4515,-6.4525,-6.4575,-6.4615,-6.4601,-6.4628,-6.4625,-6.4628,-6.4476,-6.4453,-6.4638,-6.4638,-6.4638,-6.4638,-6.4638,-6.4638,-6.4149,-6.424,-6.4239,-6.4341,-6.4357,-6.4426,-6.4449,-6.448,-6.4503,-6.4583,-6.4628,-6.4634,-6.4654,-6.4706,-6.4753,-6.4754,-6.4774,-6.4806,-6.4802,-6.4659,-6.4639,-6.462,-6.4599,-6.4811,-6.4811,-6.4949,-6.4951,-6.4952]}]]